[[{"header":{"parameterUnit":"m.s-1","parameterCategory":1,"la1":30.2992,"la2":30.254,"lo1":-89.0895,"lo2":-89.0443,"dy":0.0025,"dx":0.0025,"nx":19,"ny":19,"refTime":"2026-04-08T21:00:00:Z","depth":0,"parameterNumber":2,"parameterNumberName":"U-component_of_WINDS"},"data":[0,0,0,-7.1545,-7.155,-7.172,-7.172,-7.1989,-7.1992,0,0,0,0,0,0,0,0,0,0,0,-7.1527,-7.153,-7.1545,-7.155,-7.172,-7.172,-7.1989,-7.1992,0,0,0,0,0,0,0,0,0,0,0,-7.1526,-7.1529,-7.1533,-7.1551,-7.172,-7.172,-7.1988,-7.1841,0,0,0,0,0,0,0,0,0,0,-7.1667,-7.1683,-7.1529,-7.1533,-7.1552,-7.172,-7.172,-7.1833,-7.1851,-7.1935,0,-7.202,0,-7.2011,-7.2014,-7.2015,0,0,0,-7.1526,-7.1669,-7.1685,-7.1534,-7.1554,-7.1719,-7.1636,-7.1842,-7.1862,-7.1958,-7.2023,-7.2031,-7.2015,-7.2016,-7.2017,-7.2588,-7.2592,0,0,-7.1516,-7.1575,-7.1672,-7.17,-7.1677,-7.1631,-7.1642,-7.1853,-7.1928,-7.2024,-7.2037,-7.202,-7.2018,-7.202,-7.2584,-7.2589,0,0,0,-7.1506,-7.157,-7.158,-7.169,-7.1717,-7.1637,-7.1649,-7.1918,-7.1916,-7.2039,-7.2023,-7.202,-7.2024,-7.258,-7.2586,-7.2832,0,0,0,-7.1499,-7.1563,-7.1577,-7.1615,-7.1714,-7.182,-7.171,-7.1902,-7.1924,-7.2021,-7.202,-7.2027,-7.2576,-7.2583,-7.2816,-7.2939,0,0,0,-7.1505,-7.1564,-7.16,-7.1618,-7.1693,-7.1815,-7.1825,-7.1905,-7.1915,-7.2015,-7.2028,-7.2573,-7.2582,-7.2802,-7.2916,-7.3107,0,0,0,-7.1529,-7.1816,-7.1605,-7.1919,-7.1692,-7.1966,-7.1822,-7.2023,-7.2139,-7.2022,-7.2576,-7.2585,-7.2798,-7.2901,-7.3093,-7.328,-7.3363,0,0,-7.1924,-7.1866,-7.2046,-7.1861,-7.2189,-7.1935,-7.2298,-7.2347,-7.2302,-7.2495,-7.2508,-7.2822,-7.2914,-7.3104,-7.3808,-7.3875,0,0,0,-7.2191,-7.2321,-7.2395,-7.2508,-7.2552,-7.2601,-7.2588,-7.2606,-7.2767,-7.2414,-7.294,-7.2993,-7.3102,-7.3189,-7.3246,-7.3336,-7.2628,-7.2627,-7.2626,-7.2836,-7.2763,-7.3056,-7.3005,-7.3116,-7.3099,-7.3182,-7.3203,-7.3097,-7.3223,-7.328,-7.3716,-7.382,-7.3862,-7.3957,-7.3372,-7.3373,-7.3374,-7.3375,-7.3409,-7.3583,-7.3434,-7.3666,-7.3587,-7.378,-7.3775,-7.3693,-7.3861,-7.3667,-7.3759,-7.3555,-7.3938,-7.4017,-7.3392,-7.3389,-7.3387,-7.3385,-7.3384,-7.3825,-7.3895,-7.3912,-7.4067,-7.4194,-7.413,-7.4299,-7.422,-7.4147,-7.4239,-7.4291,-7.4287,-7.4273,-7.4269,-7.4271,-7.4272,-7.4273,-7.4274,-7.4275,-7.4249,-7.426,-7.4412,-7.4484,-7.4545,-7.4617,-7.4603,-7.4661,-7.4705,-7.4635,-7.4635,-7.4517,-7.3989,-7.3858,-7.4299,-7.4295,-7.4292,-7.4289,-7.4288,-7.4859,-7.4709,-7.4944,-7.5006,-7.5083,-7.5215,-7.5111,-7.5237,-7.5274,-7.536,-7.5221,-7.4843,-7.4778,-7.4732,-7.4624,-7.5236,-7.5236,-7.5236,-7.5236,-7.5211,-7.5169,-7.5392,-7.5496,-7.5589,-7.552,-7.5787,-7.5779,-7.5747,-7.5765,-7.5665,-7.5513,-7.547,-7.543,-7.537,-7.5267,-7.6029,-7.603,-7.6031,-7.5582,-7.5546,-7.579,-7.5756,-7.581,-7.5858,-7.6107,-7.6233,-7.6164,-7.6061,-7.5778,-7.5744,-7.5499,-7.5423,-7.5315,-7.5223,-7.5033,0,0]},{"header":{"parameterUnit":"m.s-1","parameterCategory":1,"la1":30.2992,"la2":30.254,"lo1":-89.0895,"lo2":-89.0443,"dy":0.0025,"dx":0.0025,"nx":19,"ny":19,"refTime":"2026-04-08T21:00:00:Z","depth":0,"parameterNumber":3,"parameterNumberName":"V-component_of_WINDS"},"data":[0,0,0,-1.5112,-1.5112,-1.5127,-1.5127,-1.514,-1.5141,0,0,0,0,0,0,0,0,0,0,0,-1.5106,-1.5106,-1.5112,-1.5112,-1.5127,-1.5127,-1.514,-1.5141,0,0,0,0,0,0,0,0,0,0,0,-1.5106,-1.5106,-1.5106,-1.5113,-1.5127,-1.5127,-1.514,-1.5131,0,0,0,0,0,0,0,0,0,0,-1.5118,-1.5111,-1.5106,-1.5106,-1.5113,-1.5127,-1.5127,-1.5131,-1.5132,-1.5132,0,-1.5133,0,-1.5137,-1.5141,-1.5141,0,0,0,-1.5113,-1.511,-1.5116,-1.5106,-1.5113,-1.5127,-1.5121,-1.5131,-1.5132,-1.5133,-1.5134,-1.5134,-1.5137,-1.5141,-1.5141,-1.5142,-1.5142,0,0,-1.5113,-1.5108,-1.5115,-1.5116,-1.5115,-1.512,-1.5121,-1.5132,-1.5132,-1.5134,-1.5135,-1.5138,-1.5141,-1.5141,-1.5142,-1.5142,0,0,0,-1.511,-1.5107,-1.5113,-1.5116,-1.5119,-1.5121,-1.5122,-1.5131,-1.5133,-1.5135,-1.5138,-1.5141,-1.5142,-1.5142,-1.5142,-1.5135,0,0,0,-1.5109,-1.5106,-1.5112,-1.5109,-1.5118,-1.5125,-1.5121,-1.5132,-1.5134,-1.5138,-1.5141,-1.5142,-1.5142,-1.5142,-1.5135,-1.5132,0,0,0,-1.5106,-1.5105,-1.5107,-1.5109,-1.5115,-1.5125,-1.5128,-1.5133,-1.5136,-1.5141,-1.5142,-1.5142,-1.5142,-1.5135,-1.5133,-1.5129,0,0,0,-1.5101,-1.5101,-1.5107,-1.5108,-1.5115,-1.5121,-1.5128,-1.5133,-1.5137,-1.5141,-1.5142,-1.5142,-1.5136,-1.5133,-1.513,-1.5126,-1.5124,0,0,-1.5099,-1.5101,-1.5102,-1.5107,-1.5111,-1.5119,-1.5121,-1.513,-1.5135,-1.5139,-1.5139,-1.5135,-1.5133,-1.513,-1.5116,-1.5115,0,0,0,-1.51,-1.51,-1.5102,-1.5106,-1.5112,-1.5116,-1.5124,-1.5127,-1.513,-1.5136,-1.5134,-1.5132,-1.5131,-1.5129,-1.5128,-1.5126,-1.5141,-1.5141,-1.5141,-1.5091,-1.5096,-1.5097,-1.5103,-1.5106,-1.5113,-1.5116,-1.512,-1.5125,-1.5124,-1.5126,-1.5117,-1.5115,-1.5114,-1.5111,-1.5124,-1.5124,-1.5124,-1.5124,-1.5087,-1.5088,-1.5093,-1.5096,-1.51,-1.5102,-1.5108,-1.5111,-1.5112,-1.5117,-1.5116,-1.512,-1.5112,-1.511,-1.5124,-1.5124,-1.5124,-1.5124,-1.5124,-1.5082,-1.5083,-1.5085,-1.5089,-1.509,-1.5096,-1.5096,-1.5101,-1.5105,-1.5104,-1.5104,-1.5104,-1.5103,-1.5103,-1.5103,-1.5103,-1.5103,-1.5103,-1.5103,-1.5074,-1.5077,-1.5077,-1.5081,-1.5083,-1.5085,-1.5089,-1.509,-1.5092,-1.5095,-1.5095,-1.5099,-1.5111,-1.5113,-1.5103,-1.5103,-1.5103,-1.5103,-1.5103,-1.5068,-1.5069,-1.507,-1.5071,-1.5074,-1.5074,-1.5079,-1.5079,-1.508,-1.508,-1.5083,-1.5091,-1.5094,-1.5095,-1.5096,-1.5083,-1.5083,-1.5083,-1.5083,-1.5062,-1.5064,-1.5063,-1.5064,-1.5065,-1.5068,-1.5065,-1.5068,-1.5071,-1.5071,-1.5074,-1.5076,-1.5077,-1.5079,-1.508,-1.5082,-1.5065,-1.5065,-1.5065,-1.5058,-1.5059,-1.5057,-1.5059,-1.5061,-1.5062,-1.5059,-1.5058,-1.5061,-1.5065,-1.5071,-1.5072,-1.5076,-1.5078,-1.5082,-1.5084,-1.5087,0,0]}]]